STARLINK-32838, 62827

Orbit data source: Space-Track

STARLINK-32838, 62827 is a payload satellite owned by SpaceX/Seattle (US) in LEO that was launched on Fri, 24 Jan 2025 UTC via an FALCON 9 launch vehicle from the Air Force Western Test Range (AFWTR). Payload-class satellites include a variety of spacecraft equipped with specific instruments for various scientific and technological missions. These include communications satellites like Starlink; space stations such as the ISS; scientific satellites like the Hubble; Earth observation satellites from companies like Planet Labs, Umbra, and HawkEye 360; GPS; miniature CubeSats for education and research; and military/defense satellites.

Loading next visibility...
Identifier
62827, 2025-018X
Orbit
LEO
Country
Flag of USUS
Related business
Manufacturer
SpaceX/Seattle
Mission
Operational Commercial Communications
Bus & Motor
STARLINK V2M, Unknown motor
Mass
730 kg wet, ~700 kg dry
Launch date (UTC)
2025-01-24 (9 months ago)
Launch vehicle
FALCON 9
Launch site
Air Force Western Test Range (AFWTR)
Object type
Payload
Rocket body
Debris
Shape & HBR
Box + 2 Pan, 17.7 m
Radar Cross Section
33.884 m², Large (>1 m²)

Expand to show TLE details & history
Last TLE update: 17 hours ago

TLE from 17 hours ago
0 STARLINK-32838
1 62827U 25018X   25294.44767279  .00057198  00000-0  19263-2 0  9992
2 62827  53.1582 198.0781 0001021  86.4168 273.6949 15.30237169 42386
Epoch: 2025-10-21T10:44Z
TLE epoch observation values (Epoch: 2025-10-21T10:44:38.929Z)
Latitude
-0.00004°
Longitude
6.78037°
Altitude
475.959 km
Speed
7.629 km/s
True Right ascension
13h 12m 18s
True Declination
0° 00' 00"
Sunlit
Object was in daylight at epoch
Visualization orbit readout
Latitude
Unknown
Longitude
Unknown
Altitude
Unknown
Speed
Unknown
Apparent Right ascension
Unknown
Apparent Declination
Unknown
Sunlit
N/A
Visualization observer readout
Local Sidereal Time
22:19:40
Azimuth
Unknown
Elevation
Unknown
Doppler factor
Unknown
Orbital elements
Apogee altitude
476.061 km
Perigee altitude
474.661 km
Semi-major axis
6,853.498 km
Eccentricity
0.0001
Inclination
53.1582°
RAAN
198.0781°
Arg. of periapsis
86.4168°
True anomaly
273.68322°
Mean anomaly
273.6949°
Eccentric anomaly
273.68906°
Mean motion
3.82538 °/min
Orbital period
94.11 mins
BSTAR
0.0019263
Loading maneuver chart data...
Computing Atmospheric mass density...
Loading historical data...
Loading historical data...
Loading historical data...
Loading historical data...
Loading historical data...
Loading historical data...
Loading historical data...

Documentation

Showing up to 5 results
|